Flag for U.S.A. Weather past 2 weeks in Billings, Montana, U.S.A.

Now
75 °F

Broken clouds.


Feels Like: 77 °F
Forecast: 71 / 96 °F
Wind: 9 mph from Southwest

Location: Billings Logan International Airport

Current Time: Jun 30, 2015 at 10:52:11 AM

Latest Report: Jun 30, 2015 at 9:53 AM


Visibility: 10 mi

Pressure: 29.90 "Hg

Humidity: 58%

Dew point: 59 °F

Location of BillingsLocation

Historic Weather in Billings — Graph

°F

Billings temperature yesterday

Maximum temperature yesterday: 98 °F (at 4:53 PM)
Minimum temperature yesterday: 65 °F (at 5:53 AM)
Average temperature yesterday: 81 °F

Past Weeks' High & Low Weather Summary

 TemperatureHumidityPressure
High98 °F (Jun 29, 4:53 PM)93% (Jun 18, 5:53 AM)30.20 "Hg (Jun 18, 5:53 AM)
Low51 °F (Jun 17, 4:53 AM)12% (Jun 29, 4:53 PM)29.65 "Hg (Jun 21, 4:53 PM)
Average70 °F53%29.96 "Hg
* Reported Jun 15 9:53 AM — Jun 30 9:53 AM, Billings, Weather by CustomWeather, © 2015

Note: Actual official high and low records may vary slightly from our data, if they occured in-between our weather recording intervals... More about our weather records

Advertising

Billings weather history for previous 24 hours

 ConditionsComfort  
Time TempWeatherWind HumidityBarometerVisibility
9:53 AM
Tue, Jun 30
75 °FBroken clouds.9 mph58%29.90 "Hg10 mi
8:53 AM71 °FPartly sunny.12 mph66%29.90 "Hg10 mi
7:53 AM72 °FMostly cloudy.13 mph61%29.88 "Hg10 mi
6:53 AM68 °FBroken clouds.13 mph68%29.90 "Hg10 mi
5:53 AM67 °FPassing clouds.16 mph73%29.88 "Hg10 mi
4:53 AM67 °FPassing clouds.8 mph76%29.88 "Hg10 mi
3:53 AM69 °FPassing clouds.No wind66%29.89 "Hg10 mi
2:53 AM70 °FPassing clouds.13 mph66%29.88 "Hg10 mi
1:53 AM73 °FPassing clouds.8 mph57%29.90 "Hg10 mi
12:53 AM73 °FPartly cloudy.15 mph57%29.92 "Hg10 mi
11:53 PM
Mon, Jun 29
73 °FPassing clouds.14 mph57%29.95 "Hg10 mi
10:53 PM75 °FPassing clouds.6 mph52%29.96 "Hg10 mi
9:53 PM76 °FMore clouds than sun.21 mph50%29.99 "Hg10 mi
7:53 PM91 °FBroken clouds.7 mph21%29.89 "Hg10 mi
6:53 PM94 °FBroken clouds.8 mph16%29.87 "Hg10 mi
5:53 PM97 °FScattered clouds.9 mph12%29.88 "Hg10 mi
4:53 PM98 °FScattered clouds.13 mph12%29.88 "Hg10 mi
3:53 PM96 °FScattered clouds.9 mph14%29.91 "Hg10 mi
2:53 PM95 °FScattered clouds.6 mph14%29.95 "Hg10 mi
1:53 PM95 °FScattered clouds.8 mph19%29.96 "Hg10 mi
12:53 PM92 °FPartly sunny.8 mph19%29.98 "Hg10 mi
11:53 AM86 °FPartly sunny.No wind35%30.00 "Hg10 mi
10:53 AM84 °FScattered clouds.6 mph37%30.00 "Hg10 mi
Weather by CustomWeather, © 2015

See weather overviewHow to use our weather pages